Weather in Al-Fashir

Sudan     13°37′52″N   25°20′50″E
temp.,
°C
wind,
m/s
gust,
m/s
humid.,
%
clouds,
%
prec.,
mm/h
press.,
hPa
HPBL,
m
20 may, fri
fri2023:00+31nne56122 0.0 100861
02:00+29nne612138 0.0 1007179
05:00+28nne7151377 0.0 1008255
08:00+31e36115 0.0 1011657
11:00+36ene5780 0.0 10102063
14:00+39ene8760 0.0 10064136
17:00+38ene7765 0.0 10054156
20:00+32ne5795 0.0 100778
21 may, sat
sat2123:00+31nne56105 0.0 100862
02:00+29nne58112 0.0 100875
05:00+27n510135 0.0 1008137
08:00+30ese57110 0.0 1012688
11:00+33ese349100 0.0 10121508
14:00+37e667100 0.0 10082565
17:00+37e457100 0.0 10073030
20:00+31nne2210100 0.0 100811
22 may, sun
sun2223:00+30nne4411100 0.0 101038
02:00+27n221498 0.0 100915
05:00+26nnw1216100 0.0 101012
08:00+29nne221355 0.0 1013204
11:00+33se2311100 0.0 10121744
14:00+36e3310100 0.0 10102309
17:00+36e34999 0.0 10082655
20:00+31ene231287 0.0 101013
23 may, mon
mon2323:00+30nne441488 0.0 101031
02:00+28n4517100 0.0 101051
05:00+26nne3320100 0.0 101131
08:00+29ne3716100 0.0 1012432
11:00+35nne331118 0.0 10111903
14:00+38e22975 0.0 10073843
17:00+38ene33824 0.0 10064452
20:00+30ese5101311 0.0 1009167
24 may, tue
tue2423:00+28ne451511 0.0 101157
02:00+26nne441598 0.0 101037
05:00+25nne451579 0.0 101151
08:00+29nne591199 0.0 1012581
11:00+34ne44875 0.0 10121594
14:00+37e3372 0.0 10083073
17:00+37e44749 0.0 10073702
20:00+31ne44104 0.0 100935